Regional Weather Roundup
Issued by NWS Upton, NY

Current Version | Previous Version | Graphics & Text | Print | Product List | Glossary Off
Versions: 1 2 3 4 5 6 7 8 9 10 11 12 13 14 15 16 17 18 19 20 21 22 23 24 25 26 27 28 29 30 31 32 33 34 35 36 37 38 39 40 41 42 43 44 45 46 47 48 49 50

000
ASUS41 KOKX 080004
RWROKX

REGIONAL WEATHER ROUNDUP
NATIONAL WEATHER SERVICE NEW YORK NY
700 PM EST SUN FEB 07 2016

NOTE: "FAIR" INDICATES FEW OR NO CLOUDS BELOW 12,000 FEET WITH NO
SIGNIFICANT WEATHER AND/OR OBSTRUCTIONS TO VISIBILITY.

NYZ071-072-176-178-NJZ106-104-080100-
NEW YORK CITY METRO AREA


CITY           SKY/WX    TMP DP  RH WIND       PRES   REMARKS
CENTRAL PARK   CLOUDY    41  27  57 E8        30.04S
LAGUARDIA APRT CLOUDY    40  31  70 NE12      30.02S WCI  33
KENNEDY INTL   MOCLDY    40  27  59 NE8       30.03S WCI  34
NEWARK/LIBERTY CLOUDY    43  25  49 NE7       30.01S
BRNX BOT. GARD   N/A     39  25  56 NE2       30.04S
TETERBORO      MOCLDY    41  24  51 E6        30.01S
$$

NYZ177-179-078>081-080100-
LONG ISLAND NEW YORK

CITY           SKY/WX    TMP DP  RH WIND       PRES   REMARKS
FARMINGDALE    CLOUDY    39  29  67 NE8       30.03S WCI  33
ISLIP          CLOUDY    37  30  75 N9        30.01F WCI  30
SHIRLEY        CLOUDY    36  31  82 N3        30.04F
RIVERHEAD        N/A     36  30  80 CALM      30.01S
WESTHAMPTON    CLOUDY    38  31  76 NE7       30.04F WCI  33
EAST HAMPTON   FAIR      37  32  84 CALM      30.04S
MONTAUK POINT    N/A     41  33  73 NE9       30.06S
$$

NYZ052-065-067-080100-
HUDSON VALLEY

CITY           SKY/WX    TMP DP  RH WIND       PRES   REMARKS
WHITE PLAINS   CLOUDY    38  21  50 NE5       30.01S WCI  34
NEWBURGH       PTCLDY    37  23  56 VRB6      30.03R WCI  33
MONTGOMERY     PTCLDY    33  24  69 CALM      30.01R
POUGHKEEPSIE   CLEAR     40  20  44 SE3       30.03R
ALBANY         MOCLDY    37  20  50 N7        30.04F WCI  32
$$

NJZ001-105-106-008-010-013-015-019>022-104-080100-
NEW JERSEY

CITY           SKY/WX    TMP DP  RH WIND       PRES   REMARKS
NEWARK/LIBERTY CLOUDY    43  25  49 NE7       30.01S
TETERBORO      MOCLDY    41  24  51 E6        30.01S
CALDWELL       PTCLDY    40  23  50 E6        30.02R
MORRISTOWN     MOCLDY    37  23  56 E5        30.02R WCI  34
SOMERVILLE     MOCLDY    36  25  64 CALM      29.99S
SUSSEX         CLOUDY    34  23  64 CALM      30.01R
ANDOVER          N/A     34  22  61 CALM      30.00R
TRENTON        CLOUDY    39  22  50 NE8       29.98F WCI  33
MILLVILLE      CLOUDY    40  27  59 NE8       29.95F WCI  34
ATLANTIC CITY  CLOUDY    38  30  73 NE8       29.96F WCI  32
WRIGHTSTOWN    CLOUDY    36  32  86 NE7       29.95F WCI  30
TOMS RIVER     CLOUDY    36  27  69 NE5       29.99F WCI  32
BELMAR         MOCLDY    39  25  56 NE8       29.98F WCI  34
$$

PAZ047>061-062-071-080100-
EASTERN PENNSYLVANIA

CITY           SKY/WX    TMP DP  RH WIND       PRES   REMARKS
PHILADELPHIA   MOCLDY    42  22  44 NE8       29.97F
ALLENTOWN      CLOUDY    41  20  43 E5        29.99R
SCRANTON       PTCLDY    39  22  50 E5        29.96S
$$

CTZ002-004>006-009-010-012-RIZ004-006-007-MAZ004-011-015-080100-
SOUTHERN NEW ENGLAND
 IN CT

CITY           SKY/WX    TMP DP  RH WIND       PRES   REMARKS
BRADLEY INTL   PTCLDY    32  22  66 CALM      30.05S
HARTFORD       PTCLDY    34  25  69 CALM      30.06F
DANBURY        PTCLDY    35  20  54 CALM      30.04S
WTRBRY/OXFORD  CLOUDY    37  18  44 CALM      30.03F
BRIDGEPORT     CLOUDY    38  27  64 NE5       30.05F WCI  34
MERIDEN        PTCLDY    33  26  75 CALM      30.05F
NEW HAVEN      CLOUDY    35  26  69 NE3       30.04F
CHESTER        FAIR      37  28  70 NE5       30.04F WCI  34
GROTON         PTCLDY    38  29  70 NE9       30.06S WCI  31
WILLIMANTIC    CLOUDY    32  28  85 NE5       30.07S WCI  27

 IN RI

CITY           SKY/WX    TMP DP  RH WIND       PRES   REMARKS
PROVIDENCE     CLOUDY    36  24  62 NE9       30.09F WCI  29
BLOCK ISLAND   CLOUDY    39  32  75 E10G17    30.04F WCI  32
WESTERLY       PTCLDY    36  27  69 NE6       30.07R WCI  31

 IN MA

CITY           SKY/WX    TMP DP  RH WIND       PRES   REMARKS
BOSTON         PTCLDY    38  28  67 E10       30.12S WCI  31
WORCESTER      CLEAR     34  22  61 E7        30.06S WCI  28
WESTFIELD      CLEAR     30  22  72 CALM      30.05F
PROVINCETOWN   PTCLDY    39  30  70 NE10      30.11F WCI  32
NANTUCKET      CLOUDY    39  31  72 NE7       30.09R WCI  34
$$

ANZ330-335-338-340-345-350-353-355-080100-
COASTAL MARINE OBSERVATIONS


STATION/POSITION TIME  SKY/WX   TEMP    WIND        PRES    VSBY  WAVE
                                AIR SEA DIR/SP/G                  HT/PER
                 (UTC)          (F)     (DEG/KT/KT) (MB)    (MI)  (FT/S)
NY HARB ENTRANCE 2250            42 44   50/ 16/ 19 1015.4          2/10
4S FIRE IS       NOT AVBL
20S FIRE ISLAND  2250            42 43   60/ 14/ 16 1015.9          2/10
GREAT SOUTH BAY  NOT AVBL
23SW MTP         2350            43 45   80/ 16/ 19 1016.2          3/10
HUDSON CANYON    2250            45 50              1014.9          5/ 4
KINGS POINT      2300            40 39  100/  4/  6 1016.2
EXECUTION ROCKS  NOT AVBL
CENTRAL LI SOUND NOT AVBL
EASTERN LI SOUND 2300            42 42   60/ 10/ 12   N/A
ROBBINS REEF     2300            43      60/ 12/ 13 1015.5
$$


>>>>>>>>>>>>>>>>>>>>>>>>>>>> KEY <<<<<<<<<<<<<<<<<<<<<<<<<<<
>                                                          <
>     SKY/WX - SKY CONDITION/PRESENT WEATHER               <
>     TMP    - TEMPERATURE IN FAHRENHEIT                   <
>     DP     - DEWPOINT IN FAHRENHEIT                      <
>     RH     - RELATIVE HUMIDITY IN PERCENT                <
>     WIND   - DIRECTION AND SPEED IN MPH                  <
>     PRES   - MEAN SEA LEVEL PRESSURE IN INCHES OF HG     <
>     WCI    - WIND CHILL INDEX                            <
>     VSB    - VISIBILITY IN MILES                         <
>     HX     - HEAT INDEX                                  <
>     TC     - TEMPERATURE IN CELSIUS                      <
>     VRB    - VARIABLE WIND DIRECTION                     <
>                                                          <
>>>>>>>>>>>>>>>>>>>>>>>>>>>> KEY <<<<<<<<<<<<<<<<<<<<<<<<<<<





USA.gov is the U.S. government's official web portal to all federal, state and local government web resources and services.